When you browse on this site, cookies collect data to enhance your experience and personalize the content and advertising you see.
Visit our Privacy Policy to learn more. By continuing to use the site, you agree to this use of cookies and data.
  • In Hungary
  • List of Countries
  • For 7 days
  • Water Temperature
  • Weather Map
  • News
  • Weather Widgets
  • user-avatar
    Login

    Hourly Weather Krutoyarskiy

    Today, 23 October, Wednesday

    Time Temperature Precipitation Wind Pressure Humidity
    00:00 +8°C° 0 mm 2 mps 716 mmHg 74%
    01:00 +8°C° 0 mm 2 mps 716 mmHg 75%
    02:00 +8°C° 0 mm 2 mps 716 mmHg 76%
    03:00 +9°C° 0 mm 1 mps 716 mmHg 80%
    04:00 +9°C° 0 mm 1 mps 716 mmHg 79%
    05:00 +9°C° 0 mm 1 mps 716 mmHg 78%
    06:00 +8°C° 0 mm 2 mps 717 mmHg 78%
    07:00 +9°C° 0 mm 2 mps 717 mmHg 74%
    08:00 +10°C° 0 mm 2 mps 717 mmHg 70%
    09:00 +12°C° 0 mm 2 mps 717 mmHg 66%
    10:00 +14°C° 0 mm 2 mps 717 mmHg 60%
    11:00 +16°C° 0 mm 2 mps 717 mmHg 54%
    12:00 +17°C° 0 mm 2 mps 717 mmHg 48%
    13:00 +18°C° 0 mm 3 mps 717 mmHg 46%
    14:00 +18°C° 0 mm 3 mps 717 mmHg 43%
    15:00 +18°C° 0 mm 3 mps 716 mmHg 41%
    16:00 +17°C° 0 mm 3 mps 716 mmHg 45%
    17:00 +14°C° 0 mm 3 mps 716 mmHg 50%
    18:00 +13°C° 0 mm 2 mps 716 mmHg 55%
    19:00 +13°C° 0 mm 2 mps 716 mmHg 57%
    20:00 +12°C° 0 mm 2 mps 716 mmHg 59%
    21:00 +10°C° 0 mm 2 mps 716 mmHg 62%
    22:00 +10°C° 0 mm 2 mps 716 mmHg 64%
    23:00 +9°C° 0 mm 2 mps 716 mmHg 66%

    Tomorrow, 24 October, Thursday

    Time Temperature Precipitation Wind Pressure Humidity
    00:00 +9°C° 0 mm 2 mps 716 mmHg 68%
    01:00 +9°C° 0 mm 2 mps 716 mmHg 70%
    02:00 +8°C° 0 mm 2 mps 716 mmHg 71%
    03:00 +8°C° 0 mm 2 mps 715 mmHg 73%
    04:00 +8°C° 0 mm 2 mps 715 mmHg 74%
    05:00 +8°C° 0 mm 2 mps 715 mmHg 75%
    06:00 +8°C° 0 mm 2 mps 715 mmHg 76%
    07:00 +9°C° 0 mm 2 mps 716 mmHg 71%
    08:00 +10°C° 0 mm 2 mps 716 mmHg 67%
    09:00 +12°C° 0 mm 2 mps 716 mmHg 63%
    10:00 +14°C° 0 mm 2 mps 716 mmHg 56%
    11:00 +16°C° 0 mm 3 mps 716 mmHg 49%
    12:00 +18°C° 0 mm 3 mps 716 mmHg 42%
    13:00 +18°C° 0 mm 3 mps 716 mmHg 41%
    14:00 +18°C° 0 mm 3 mps 716 mmHg 41%
    15:00 +18°C° 0 mm 3 mps 715 mmHg 40%
    16:00 +16°C° 0 mm 3 mps 715 mmHg 46%
    17:00 +14°C° 0 mm 3 mps 715 mmHg 52%
    18:00 +12°C° 0 mm 3 mps 715 mmHg 58%
    19:00 +12°C° 0 mm 3 mps 715 mmHg 59%
    20:00 +11°C° 0 mm 3 mps 715 mmHg 60%
    21:00 +10°C° 0 mm 3 mps 715 mmHg 61%
    22:00 +10°C° 0 mm 2 mps 715 mmHg 63%
    23:00 +10°C° 0 mm 2 mps 714 mmHg 64%

    Day after tomorrow, 25 October, Friday

    Time Temperature Precipitation Wind Pressure Humidity
    00:00 +9°C° 0 mm 2 mps 714 mmHg 65%
    01:00 +9°C° 0 mm 2 mps 714 mmHg 66%
    02:00 +9°C° 0 mm 2 mps 714 mmHg 67%
    03:00 +9°C° 0 mm 2 mps 714 mmHg 67%
    04:00 +8°C° 0 mm 2 mps 714 mmHg 69%
    05:00 +8°C° 0 mm 2 mps 714 mmHg 70%
    06:00 +8°C° 0 mm 2 mps 713 mmHg 71%
    07:00 +9°C° 0 mm 2 mps 714 mmHg 68%
    08:00 +10°C° 0 mm 2 mps 714 mmHg 65%
    09:00 +12°C° 0 mm 2 mps 714 mmHg 62%
    10:00 +13°C° 0 mm 3 mps 714 mmHg 58%
    11:00 +14°C° 0 mm 3 mps 714 mmHg 54%
    12:00 +17°C° 0 mm 4 mps 714 mmHg 50%
    13:00 +17°C° 0 mm 4 mps 714 mmHg 51%
    14:00 +16°C° 0 mm 5 mps 714 mmHg 52%
    15:00 +16°C° 0 mm 5 mps 714 mmHg 53%
    16:00 +15°C° 0 mm 4 mps 714 mmHg 59%
    17:00 +14°C° 0 mm 4 mps 714 mmHg 64%
    18:00 +12°C° 0 mm 4 mps 714 mmHg 69%
    19:00 +12°C° 0 mm 3 mps 714 mmHg 71%
    20:00 +11°C° 0 mm 3 mps 714 mmHg 73%
    21:00 +11°C° 0 mm 3 mps 714 mmHg 75%
    22:00 +10°C° 0 mm 3 mps 714 mmHg 76%
    23:00 +10°C° 0 mm 3 mps 714 mmHg 77%

    26 October, Saturday

    Time Temperature Precipitation Wind Pressure Humidity
    00:00 +9°C° 0 mm 3 mps 714 mmHg 78%
    01:00 +9°C° 0 mm 3 mps 714 mmHg 79%
    02:00 +9°C° 0 mm 2 mps 713 mmHg 81%
    03:00 +8°C° 0 mm 2 mps 713 mmHg 83%
    04:00 +8°C° 0 mm 2 mps 714 mmHg 85%
    05:00 +8°C° 0 mm 2 mps 714 mmHg 87%
    06:00 +8°C° 0 mm 2 mps 714 mmHg 89%
    07:00 +9°C° 0 mm 3 mps 714 mmHg 86%
    08:00 +10°C° 0 mm 3 mps 714 mmHg 83%
    09:00 +11°C° 0 mm 4 mps 715 mmHg 80%
    10:00 +12°C° 0 mm 4 mps 715 mmHg 75%
    11:00 +13°C° 0 mm 4 mps 715 mmHg 70%
    12:00 +15°C° 0 mm 4 mps 715 mmHg 64%
    13:00 +15°C° 0 mm 5 mps 715 mmHg 65%
    14:00 +15°C° 0 mm 5 mps 715 mmHg 65%
    15:00 +15°C° 0 mm 5 mps 715 mmHg 66%
    16:00 +13°C° 0 mm 4 mps 715 mmHg 71%
    17:00 +12°C° 0 mm 4 mps 715 mmHg 76%
    18:00 +11°C° 0 mm 3 mps 715 mmHg 81%
    19:00 +11°C° 0 mm 3 mps 715 mmHg 83%
    20:00 +10°C° 0 mm 3 mps 715 mmHg 85%
    21:00 +10°C° 0 mm 3 mps 715 mmHg 87%
    22:00 +10°C° 0 mm 2 mps 715 mmHg 88%
    23:00 +9°C° 0 mm 2 mps 715 mmHg 90%

    27 October, Sunday

    Time Temperature Precipitation Wind Pressure Humidity
    00:00 +9°C° 0 mm 2 mps 715 mmHg 91%
    01:00 +9°C° 0 mm 2 mps 715 mmHg 92%
    02:00 +9°C° 0 mm 2 mps 715 mmHg 92%
    03:00 +9°C° 0 mm 1 mps 715 mmHg 93%
    04:00 +9°C° 0 mm 1 mps 715 mmHg 93%
    05:00 +9°C° 0 mm 1 mps 715 mmHg 94%
    06:00 +9°C° 0 mm 1 mps 715 mmHg 94%
    07:00 +10°C° 0 mm 1 mps 715 mmHg 89%
    08:00 +11°C° 0 mm 1 mps 715 mmHg 85%
    09:00 +13°C° 0 mm 1 mps 715 mmHg 80%
    10:00 +14°C° 0 mm 2 mps 716 mmHg 72%
    11:00 +16°C° 0 mm 2 mps 716 mmHg 65%
    12:00 +17°C° 0 mm 2 mps 716 mmHg 57%
    13:00 +18°C° 0 mm 2 mps 715 mmHg 55%
    14:00 +18°C° 0 mm 2 mps 715 mmHg 52%
    15:00 +19°C° 0 mm 2 mps 715 mmHg 50%
    16:00 +17°C° 0 mm 2 mps 714 mmHg 56%
    17:00 +16°C° 0 mm 2 mps 714 mmHg 62%
    18:00 +14°C° 0 mm 2 mps 714 mmHg 69%
    19:00 +14°C° 0 mm 2 mps 714 mmHg 72%
    20:00 +13°C° 0 mm 2 mps 714 mmHg 76%
    21:00 +12°C° 0 mm 1 mps 714 mmHg 80%
    22:00 +12°C° 0 mm 1 mps 714 mmHg 82%
    23:00 +12°C° 0 mm 1 mps 713 mmHg 84%

    28 October, Monday

    Time Temperature Precipitation Wind Pressure Humidity
    00:00 +11°C° 0 mm 1 mps 713 mmHg 86%
    01:00 +11°C° 0 mm 1 mps 713 mmHg 86%
    02:00 +11°C° 0 mm 1 mps 713 mmHg 87%
    03:00 +11°C° 0 mm 1 mps 713 mmHg 87%
    04:00 +11°C° 0 mm 1 mps 712 mmHg 87%
    05:00 +10°C° 0 mm 0 mps 712 mmHg 87%
    06:00 +9°C° 0 mm 0 mps 712 mmHg 87%
    07:00 +10°C° 0 mm 0 mps 712 mmHg 82%
    08:00 +12°C° 0 mm 1 mps 712 mmHg 78%
    09:00 +13°C° 0 mm 1 mps 712 mmHg 73%
    10:00 +15°C° 0 mm 1 mps 712 mmHg 67%
    11:00 +16°C° 0 mm 1 mps 712 mmHg 61%
    12:00 +18°C° 0 mm 1 mps 712 mmHg 55%
    13:00 +19°C° 0 mm 1 mps 712 mmHg 53%
    14:00 +19°C° 0 mm 1 mps 712 mmHg 52%
    15:00 +18°C° 0 mm 2 mps 711 mmHg 50%
    16:00 +17°C° 0 mm 2 mps 711 mmHg 55%
    17:00 +16°C° 0 mm 1 mps 711 mmHg 60%
    18:00 +15°C° 0 mm 1 mps 711 mmHg 65%
    19:00 +14°C° 0 mm 1 mps 711 mmHg 66%
    20:00 +14°C° 0 mm 1 mps 711 mmHg 67%
    21:00 +13°C° 0 mm 1 mps 710 mmHg 69%
    22:00 +13°C° 0 mm 1 mps 710 mmHg 68%
    23:00 +13°C° 0 mm 1 mps 710 mmHg 68%

    29 October, Tuesday

    Time Temperature Precipitation Wind Pressure Humidity
    00:00 +12°C° 0 mm 1 mps 710 mmHg 68%
    01:00 +12°C° 0 mm 1 mps 710 mmHg 69%
    02:00 +12°C° 0 mm 1 mps 710 mmHg 69%
    03:00 +11°C° 0 mm 0 mps 710 mmHg 70%
    04:00 +12°C° 0 mm 1 mps 709 mmHg 71%
    05:00 +11°C° 0 mm 1 mps 709 mmHg 72%
    06:00 +11°C° 0 mm 1 mps 709 mmHg 73%
    07:00 +12°C° 0 mm 1 mps 710 mmHg 69%
    08:00 +13°C° 0 mm 1 mps 710 mmHg 66%
    09:00 +14°C° 0 mm 1 mps 710 mmHg 63%
    10:00 +15°C° 0 mm 1 mps 710 mmHg 58%
    11:00 +16°C° 0 mm 2 mps 710 mmHg 54%
    12:00 +17°C° 0 mm 2 mps 710 mmHg 49%
    13:00 +18°C° 0 mm 2 mps 710 mmHg 48%
    14:00 +18°C° 0 mm 2 mps 710 mmHg 47%
    15:00 +18°C° 0 mm 2 mps 710 mmHg 46%
    16:00 +17°C° 0 mm 2 mps 710 mmHg 51%
    17:00 +15°C° 0 mm 2 mps 710 mmHg 56%
    18:00 +14°C° 0 mm 1 mps 710 mmHg 60%
    19:00 +14°C° 0 mm 1 mps 710 mmHg 62%
    20:00 +13°C° 0 mm 1 mps 710 mmHg 64%
    21:00 +13°C° 0 mm 1 mps 710 mmHg 66%
    22:00 +12°C° 0 mm 1 mps 710 mmHg 68%
    23:00 +12°C° 0 mm 2 mps 710 mmHg 69%
    Show more